Bloomington, IL

5:15 AM CST on December 05, 2016 (GMT -0600)
Central Ill Regional

Weather History for KBMI - July, 2013

Change the Weather History Date:

Sunday, July 14, 2013

  Actual Average Record
Temperature  
Mean Temperature 76 °F -  
Max Temperature 88 °F 95 °F 99 °F (1976)
Min Temperature 63 °F 67 °F 57 °F (2011)
Cooling Degree Days 10    
Growing Degree Days 26 (Base 50)    
Moisture  
Dew Point 68 °F    
Average Humidity 75    
Maximum Humidity 97    
Minimum Humidity 51    
Precipitation  
Precipitation 0.00 in - - ()
Sea Level Pressure  
Sea Level Pressure 30.14 in    
Wind  
Wind Speed 8 mph (ESE)    
Max Wind Speed 13 mph    
Max Gust Speed -    
Visibility 10 miles    
Events      
Averages and records for this station are not official NWS values.
T = Trace of Precipitation, MM = Missing Value Source: NWS Daily Summary

Daily Weather History Graph

Daily Weather History Graph

Search for Another Location

Airport or City:

Trip Planner

Search our weather history database for the weather conditions in past years. The results will help you decide how hot, cold, wet, or windy it might be!

Date:

Astronomy

Jul. 14, 2013 Rise Set
Actual Time 5:37 AM CDT 8:25 PM CDT
Civil Twilight 5:05 AM CDT 8:57 PM CDT
Nautical Twilight 4:24 AM CDT 9:37 PM CDT
Astronomical Twilight 3:38 AM CDT 10:24 PM CDT
Moon 11:55 AM CDT (7/14) 11:35 PM CDT (7/14)
Length of Visible Light 15h 52m
Length of Day
14h 47m
Waxing Crescent, 35% of the Moon is Illuminated
Jul 14
Waxing Crescent
Jul 15
First Quarter
Jul 22
Full
Jul 29
Last Quarter
Aug 6
New

Hourly Weather History & Observations

Time (CDT) Temp. Heat Index Dew Point Humidity Pressure Visibility Wind Dir Wind Speed Gust Speed Precip Events Conditions
12:56 AM 68.9 °F - 64.9 °F 87% 30.10 in 10.0 mi East 9.2 mph - N/A   Clear
1:56 AM 66.9 °F - 63.9 °F 90% 30.10 in 10.0 mi East 6.9 mph - N/A   Clear
2:56 AM 65.8 °F - 63.9 °F 93% 30.11 in 8.0 mi East 8.1 mph - N/A   Clear
3:56 AM 64.9 °F - 63.0 °F 93% 30.12 in 7.0 mi ENE 8.1 mph - N/A   Scattered Clouds
4:56 AM 63.9 °F - 63.0 °F 97% 30.14 in 6.0 mi East 5.8 mph - N/A   Clear
5:56 AM 63.9 °F - 61.9 °F 93% 30.14 in 7.0 mi SE 8.1 mph - N/A   Clear
6:56 AM 70.0 °F - 65.8 °F 87% 30.14 in 10.0 mi SE 8.1 mph - N/A   Clear
7:56 AM 73.9 °F - 66.9 °F 79% 30.13 in 10.0 mi SE 9.2 mph - N/A   Clear
8:56 AM 77.9 °F - 68.9 °F 74% 30.14 in 10.0 mi SSE 12.7 mph - N/A   Clear
9:56 AM 79.9 °F - 68.9 °F 69% 30.15 in 10.0 mi South 10.4 mph - N/A   Clear
10:56 AM 82.9 °F 87.0 °F 70.0 °F 65% 30.16 in 10.0 mi SE 8.1 mph - N/A   Clear
11:56 AM 83.8 °F 87.5 °F 68.9 °F 61% 30.16 in 10.0 mi SSE 8.1 mph - N/A   Clear
12:56 PM 86.0 °F 89.7 °F 68.9 °F 56% 30.15 in 10.0 mi SSE 9.2 mph - N/A   Scattered Clouds
1:56 PM 88.0 °F 92.1 °F 68.9 °F 53% 30.15 in 10.0 mi SSE 8.1 mph - N/A   Scattered Clouds
2:56 PM 88.0 °F 91.4 °F 68.0 °F 51% 30.15 in 10.0 mi SSE 8.1 mph - N/A   Partly Cloudy
3:56 PM 88.0 °F 92.9 °F 70.0 °F 55% 30.15 in 10.0 mi ESE 8.1 mph - N/A   Mostly Cloudy
4:56 PM 84.9 °F 88.8 °F 68.9 °F 59% 30.14 in 10.0 mi SE 5.8 mph - N/A   Mostly Cloudy
5:56 PM 84.9 °F 90.1 °F 70.9 °F 63% 30.14 in 10.0 mi ESE 4.6 mph - N/A   Mostly Cloudy
6:56 PM 84.9 °F 90.1 °F 70.9 °F 63% 30.14 in 10.0 mi East 6.9 mph - N/A   Mostly Cloudy
7:56 PM 81.9 °F 87.0 °F 72.9 °F 74% 30.16 in 10.0 mi East 6.9 mph - N/A   Partly Cloudy
8:56 PM 77.9 °F - 70.9 °F 79% 30.16 in 10.0 mi East 8.1 mph - N/A   Clear
9:56 PM 75.9 °F - 72.0 °F 87% 30.17 in 10.0 mi East 6.9 mph - N/A   Clear
10:56 PM 75.9 °F - 70.9 °F 84% 30.17 in 10.0 mi East 4.6 mph - N/A   Clear
11:56 PM 74.8 °F - 70.9 °F 87% 30.17 in 10.0 mi SE 6.9 mph - N/A   Clear